Netzbetreibername:;EG Oesterweg e.G.;;
Netz- oder Umspannebene:;Niederspannung NS;;
Lastgangtyp:;Lastverlauf der Jahresh�chstlast;;
gesetzliche Grundlage:;� 17 Abs. 2 Nr. 1 StromNZV;;
Einheit:;kW;;
Betrachtungszeitraum:;01.01.2018;31.12.2018;
;;;
Datum;von;bis;Wert
01.01.2018;00:00;00:15;515
01.01.2018;00:15;00:30;504
01.01.2018;00:30;00:45;489
01.01.2018;00:45;01:00;468
01.01.2018;01:00;01:15;461
01.01.2018;01:15;01:30;454
01.01.2018;01:30;01:45;445
01.01.2018;01:45;02:00;442
01.01.2018;02:00;02:15;437
01.01.2018;02:15;02:30;427
01.01.2018;02:30;02:45;460
01.01.2018;02:45;03:00;468
01.01.2018;03:00;03:15;441
01.01.2018;03:15;03:30;442
01.01.2018;03:30;03:45;434
01.01.2018;03:45;04:00;447
01.01.2018;04:00;04:15;467
01.01.2018;04:15;04:30;434
01.01.2018;04:30;04:45;428
01.01.2018;04:45;05:00;433
01.01.2018;05:00;05:15;428
01.01.2018;05:15;05:30;421
01.01.2018;05:30;05:45;413
01.01.2018;05:45;06:00;396
01.01.2018;06:00;06:15;355
01.01.2018;06:15;06:30;358
01.01.2018;06:30;06:45;365
01.01.2018;06:45;07:00;370
01.01.2018;07:00;07:15;365
01.01.2018;07:15;07:30;368
01.01.2018;07:30;07:45;367
01.01.2018;07:45;08:00;378
01.01.2018;08:00;08:15;380
01.01.2018;08:15;08:30;384
01.01.2018;08:30;08:45;410
01.01.2018;08:45;09:00;441
01.01.2018;09:00;09:15;482
01.01.2018;09:15;09:30;486
01.01.2018;09:30;09:45;463
01.01.2018;09:45;10:00;483
01.01.2018;10:00;10:15;482
01.01.2018;10:15;10:30;518
01.01.2018;10:30;10:45;522
01.01.2018;10:45;11:00;564
01.01.2018;11:00;11:15;425
01.01.2018;11:15;11:30;384
01.01.2018;11:30;11:45;529
01.01.2018;11:45;12:00;531
01.01.2018;12:00;12:15;693
01.01.2018;12:15;12:30;762
01.01.2018;12:30;12:45;720
01.01.2018;12:45;13:00;712
01.01.2018;13:00;13:15;692
01.01.2018;13:15;13:30;639
01.01.2018;13:30;13:45;576
01.01.2018;13:45;14:00;648
01.01.2018;14:00;14:15;670
01.01.2018;14:15;14:30;609
01.01.2018;14:30;14:45;651
01.01.2018;14:45;15:00;704
01.01.2018;15:00;15:15;692
01.01.2018;15:15;15:30;672
01.01.2018;15:30;15:45;647
01.01.2018;15:45;16:00;629
01.01.2018;16:00;16:15;651
01.01.2018;16:15;16:30;653
01.01.2018;16:30;16:45;695
01.01.2018;16:45;17:00;737
01.01.2018;17:00;17:15;743
01.01.2018;17:15;17:30;753
01.01.2018;17:30;17:45;753
01.01.2018;17:45;18:00;785
01.01.2018;18:00;18:15;811
01.01.2018;18:15;18:30;805
01.01.2018;18:30;18:45;795
01.01.2018;18:45;19:00;777
01.01.2018;19:00;19:15;738
01.01.2018;19:15;19:30;744
01.01.2018;19:30;19:45;733
01.01.2018;19:45;20:00;712
01.01.2018;20:00;20:15;698
01.01.2018;20:15;20:30;681
01.01.2018;20:30;20:45;647
01.01.2018;20:45;21:00;628
01.01.2018;21:00;21:15;600
01.01.2018;21:15;21:30;595
01.01.2018;21:30;21:45;561
01.01.2018;21:45;22:00;541
01.01.2018;22:00;22:15;541
01.01.2018;22:15;22:30;534
01.01.2018;22:30;22:45;519
01.01.2018;22:45;23:00;484
01.01.2018;23:00;23:15;466
01.01.2018;23:15;23:30;435
01.01.2018;23:30;23:45;406
02.01.2018;23:45;00:00;392
02.01.2018;00:00;00:15;381
02.01.2018;00:15;00:30;377
02.01.2018;00:30;00:45;362
02.01.2018;00:45;01:00;355
02.01.2018;01:00;01:15;356
02.01.2018;01:15;01:30;362,4521071
02.01.2018;01:30;01:45;356,2836543
02.01.2018;01:45;02:00;361,1492315
02.01.2018;02:00;02:15;346,9029887
02.01.2018;02:15;02:30;345,0373967
02.01.2018;02:30;02:45;352,8164452
02.01.2018;02:45;03:00;372,9171691
02.01.2018;03:00;03:15;360,0778503
02.01.2018;03:15;03:30;378,4683351
02.01.2018;03:30;03:45;379,8652745
02.01.2018;03:45;04:00;378,930792
02.01.2018;04:00;04:15;403,131425
02.01.2018;04:15;04:30;412,0845691
02.01.2018;04:30;04:45;409,6549599
02.01.2018;04:45;05:00;418,8036844
02.01.2018;05:00;05:15;426
02.01.2018;05:15;05:30;428
02.01.2018;05:30;05:45;443
02.01.2018;05:45;06:00;449
02.01.2018;06:00;06:15;446
02.01.2018;06:15;06:30;447
02.01.2018;06:30;06:45;457
02.01.2018;06:45;07:00;458
02.01.2018;07:00;07:15;471
02.01.2018;07:15;07:30;490
02.01.2018;07:30;07:45;508
02.01.2018;07:45;08:00;553
02.01.2018;08:00;08:15;582
02.01.2018;08:15;08:30;560
02.01.2018;08:30;08:45;568
02.01.2018;08:45;09:00;594
02.01.2018;09:00;09:15;617
02.01.2018;09:15;09:30;645
02.01.2018;09:30;09:45;657
02.01.2018;09:45;10:00;702
02.01.2018;10:00;10:15;706
02.01.2018;10:15;10:30;693
02.01.2018;10:30;10:45;719
02.01.2018;10:45;11:00;723
02.01.2018;11:00;11:15;744
02.01.2018;11:15;11:30;783
02.01.2018;11:30;11:45;779
02.01.2018;11:45;12:00;827
02.01.2018;12:00;12:15;757
02.01.2018;12:15;12:30;743
02.01.2018;12:30;12:45;703
02.01.2018;12:45;13:00;738
02.01.2018;13:00;13:15;764
02.01.2018;13:15;13:30;760
02.01.2018;13:30;13:45;696
02.01.2018;13:45;14:00;643
02.01.2018;14:00;14:15;715
02.01.2018;14:15;14:30;762
02.01.2018;14:30;14:45;762
02.01.2018;14:45;15:00;733
02.01.2018;15:00;15:15;714
02.01.2018;15:15;15:30;719
02.01.2018;15:30;15:45;704
02.01.2018;15:45;16:00;669
02.01.2018;16:00;16:15;671
02.01.2018;16:15;16:30;683
02.01.2018;16:30;16:45;674
02.01.2018;16:45;17:00;689
02.01.2018;17:00;17:15;721
02.01.2018;17:15;17:30;736
02.01.2018;17:30;17:45;761
02.01.2018;17:45;18:00;776
02.01.2018;18:00;18:15;783
02.01.2018;18:15;18:30;759
02.01.2018;18:30;18:45;747
02.01.2018;18:45;19:00;740
02.01.2018;19:00;19:15;769
02.01.2018;19:15;19:30;773
02.01.2018;19:30;19:45;746
02.01.2018;19:45;20:00;719
02.01.2018;20:00;20:15;719
02.01.2018;20:15;20:30;692
02.01.2018;20:30;20:45;654
02.01.2018;20:45;21:00;634
02.01.2018;21:00;21:15;604
02.01.2018;21:15;21:30;627
02.01.2018;21:30;21:45;586
02.01.2018;21:45;22:00;591
02.01.2018;22:00;22:15;556
02.01.2018;22:15;22:30;556
02.01.2018;22:30;22:45;541
02.01.2018;22:45;23:00;504
02.01.2018;23:00;23:15;500
02.01.2018;23:15;23:30;470
02.01.2018;23:30;23:45;422
03.01.2018;23:45;00:00;412
03.01.2018;00:00;00:15;399
03.01.2018;00:15;00:30;382
03.01.2018;00:30;00:45;371
03.01.2018;00:45;01:00;357
03.01.2018;01:00;01:15;351
03.01.2018;01:15;01:30;357
03.01.2018;01:30;01:45;363
03.01.2018;01:45;02:00;369
03.01.2018;02:00;02:15;374
03.01.2018;02:15;02:30;371
03.01.2018;02:30;02:45;362
03.01.2018;02:45;03:00;377
03.01.2018;03:00;03:15;368
03.01.2018;03:15;03:30;380,1542719
03.01.2018;03:30;03:45;386,3079141
03.01.2018;03:45;04:00;370,0922067
03.01.2018;04:00;04:15;392,7078788
03.01.2018;04:15;04:30;402,4394273
03.01.2018;04:30;04:45;402
03.01.2018;04:45;05:00;395
03.01.2018;05:00;05:15;398
03.01.2018;05:15;05:30;399
03.01.2018;05:30;05:45;428
03.01.2018;05:45;06:00;452
03.01.2018;06:00;06:15;436
03.01.2018;06:15;06:30;435
03.01.2018;06:30;06:45;439
03.01.2018;06:45;07:00;428
03.01.2018;07:00;07:15;447
03.01.2018;07:15;07:30;477
03.01.2018;07:30;07:45;501
03.01.2018;07:45;08:00;544
03.01.2018;08:00;08:15;564
03.01.2018;08:15;08:30;578
03.01.2018;08:30;08:45;562
03.01.2018;08:45;09:00;571
03.01.2018;09:00;09:15;618
03.01.2018;09:15;09:30;608
03.01.2018;09:30;09:45;625
03.01.2018;09:45;10:00;642
03.01.2018;10:00;10:15;666
03.01.2018;10:15;10:30;693
03.01.2018;10:30;10:45;680
03.01.2018;10:45;11:00;707
03.01.2018;11:00;11:15;734
03.01.2018;11:15;11:30;697
03.01.2018;11:30;11:45;705
03.01.2018;11:45;12:00;764
03.01.2018;12:00;12:15;770
03.01.2018;12:15;12:30;833
03.01.2018;12:30;12:45;837
03.01.2018;12:45;13:00;816
03.01.2018;13:00;13:15;827
03.01.2018;13:15;13:30;829
03.01.2018;13:30;13:45;797
03.01.2018;13:45;14:00;781
03.01.2018;14:00;14:15;773
03.01.2018;14:15;14:30;787
03.01.2018;14:30;14:45;789
03.01.2018;14:45;15:00;756
03.01.2018;15:00;15:15;729
03.01.2018;15:15;15:30;721
03.01.2018;15:30;15:45;707
03.01.2018;15:45;16:00;709
03.01.2018;16:00;16:15;705
03.01.2018;16:15;16:30;697
03.01.2018;16:30;16:45;735
03.01.2018;16:45;17:00;786
03.01.2018;17:00;17:15;772
03.01.2018;17:15;17:30;758
03.01.2018;17:30;17:45;782
03.01.2018;17:45;18:00;798
03.01.2018;18:00;18:15;793
03.01.2018;18:15;18:30;774
03.01.2018;18:30;18:45;773
03.01.2018;18:45;19:00;757
03.01.2018;19:00;19:15;768
03.01.2018;19:15;19:30;771
03.01.2018;19:30;19:45;757
03.01.2018;19:45;20:00;752
03.01.2018;20:00;20:15;752
03.01.2018;20:15;20:30;690
03.01.2018;20:30;20:45;656
03.01.2018;20:45;21:00;666
03.01.2018;21:00;21:15;613
03.01.2018;21:15;21:30;612
03.01.2018;21:30;21:45;595
03.01.2018;21:45;22:00;563
03.01.2018;22:00;22:15;560
03.01.2018;22:15;22:30;552
03.01.2018;22:30;22:45;528
03.01.2018;22:45;23:00;501
03.01.2018;23:00;23:15;478
03.01.2018;23:15;23:30;456
03.01.2018;23:30;23:45;430
04.01.2018;23:45;00:00;405
04.01.2018;00:00;00:15;385
04.01.2018;00:15;00:30;369
04.01.2018;00:30;00:45;372
04.01.2018;00:45;01:00;368
04.01.2018;01:00;01:15;350
04.01.2018;01:15;01:30;355
04.01.2018;01:30;01:45;353
04.01.2018;01:45;02:00;364
04.01.2018;02:00;02:15;360
04.01.2018;02:15;02:30;343
04.01.2018;02:30;02:45;348
04.01.2018;02:45;03:00;364
04.01.2018;03:00;03:15;371
04.01.2018;03:15;03:30;384
04.01.2018;03:30;03:45;389
04.01.2018;03:45;04:00;376
04.01.2018;04:00;04:15;409
04.01.2018;04:15;04:30;408
04.01.2018;04:30;04:45;407
04.01.2018;04:45;05:00;399
04.01.2018;05:00;05:15;411
04.01.2018;05:15;05:30;430
04.01.2018;05:30;05:45;443
04.01.2018;05:45;06:00;439
04.01.2018;06:00;06:15;450
04.01.2018;06:15;06:30;443
04.01.2018;06:30;06:45;450
04.01.2018;06:45;07:00;460
04.01.2018;07:00;07:15;481
04.01.2018;07:15;07:30;510
04.01.2018;07:30;07:45;518
04.01.2018;07:45;08:00;569
04.01.2018;08:00;08:15;544
04.01.2018;08:15;08:30;581
04.01.2018;08:30;08:45;568
04.01.2018;08:45;09:00;579
04.01.2018;09:00;09:15;586
04.01.2018;09:15;09:30;639
04.01.2018;09:30;09:45;650
04.01.2018;09:45;10:00;657
04.01.2018;10:00;10:15;666
04.01.2018;10:15;10:30;707
04.01.2018;10:30;10:45;702
04.01.2018;10:45;11:00;694
04.01.2018;11:00;11:15;708
04.01.2018;11:15;11:30;723
04.01.2018;11:30;11:45;765
04.01.2018;11:45;12:00;745
04.01.2018;12:00;12:15;781
04.01.2018;12:15;12:30;787
04.01.2018;12:30;12:45;759
04.01.2018;12:45;13:00;705
04.01.2018;13:00;13:15;722
04.01.2018;13:15;13:30;782
04.01.2018;13:30;13:45;769
04.01.2018;13:45;14:00;763
04.01.2018;14:00;14:15;735
04.01.2018;14:15;14:30;702
04.01.2018;14:30;14:45;712
04.01.2018;14:45;15:00;696
04.01.2018;15:00;15:15;696
04.01.2018;15:15;15:30;684
04.01.2018;15:30;15:45;679
04.01.2018;15:45;16:00;673
04.01.2018;16:00;16:15;684
04.01.2018;16:15;16:30;681
04.01.2018;16:30;16:45;670
04.01.2018;16:45;17:00;689
04.01.2018;17:00;17:15;689
04.01.2018;17:15;17:30;720
04.01.2018;17:30;17:45;763
04.01.2018;17:45;18:00;794
04.01.2018;18:00;18:15;806
04.01.2018;18:15;18:30;813
04.01.2018;18:30;18:45;795
04.01.2018;18:45;19:00;789
04.01.2018;19:00;19:15;787
04.01.2018;19:15;19:30;790
04.01.2018;19:30;19:45;734
04.01.2018;19:45;20:00;746
04.01.2018;20:00;20:15;701
04.01.2018;20:15;20:30;658
04.01.2018;20:30;20:45;627
04.01.2018;20:45;21:00;614
04.01.2018;21:00;21:15;633
04.01.2018;21:15;21:30;620
04.01.2018;21:30;21:45;608
04.01.2018;21:45;22:00;573
04.01.2018;22:00;22:15;598
04.01.2018;22:15;22:30;571
04.01.2018;22:30;22:45;569
04.01.2018;22:45;23:00;527
04.01.2018;23:00;23:15;495
04.01.2018;23:15;23:30;462
04.01.2018;23:30;23:45;437
05.01.2018;23:45;00:00;409
05.01.2018;00:00;00:15;416
05.01.2018;00:15;00:30;394
05.01.2018;00:30;00:45;382
05.01.2018;00:45;01:00;360
05.01.2018;01:00;01:15;374
05.01.2018;01:15;01:30;365
05.01.2018;01:30;01:45;353
05.01.2018;01:45;02:00;325
05.01.2018;02:00;02:15;352
05.01.2018;02:15;02:30;356
05.01.2018;02:30;02:45;343
05.01.2018;02:45;03:00;367
05.01.2018;03:00;03:15;376
05.01.2018;03:15;03:30;389
05.01.2018;03:30;03:45;397
05.01.2018;03:45;04:00;394
05.01.2018;04:00;04:15;420
05.01.2018;04:15;04:30;411
05.01.2018;04:30;04:45;406
05.01.2018;04:45;05:00;409
05.01.2018;05:00;05:15;405
05.01.2018;05:15;05:30;415
05.01.2018;05:30;05:45;434
05.01.2018;05:45;06:00;428
05.01.2018;06:00;06:15;444
05.01.2018;06:15;06:30;469
05.01.2018;06:30;06:45;489
05.01.2018;06:45;07:00;463
05.01.2018;07:00;07:15;482
05.01.2018;07:15;07:30;500
05.01.2018;07:30;07:45;523
05.01.2018;07:45;08:00;538
05.01.2018;08:00;08:15;575
05.01.2018;08:15;08:30;594
05.01.2018;08:30;08:45;580
05.01.2018;08:45;09:00;602
05.01.2018;09:00;09:15;634
05.01.2018;09:15;09:30;635
05.01.2018;09:30;09:45;636
05.01.2018;09:45;10:00;681
05.01.2018;10:00;10:15;666
05.01.2018;10:15;10:30;637
05.01.2018;10:30;10:45;665
05.01.2018;10:45;11:00;709
05.01.2018;11:00;11:15;731
05.01.2018;11:15;11:30;743
05.01.2018;11:30;11:45;793
05.01.2018;11:45;12:00;845
05.01.2018;12:00;12:15;849
05.01.2018;12:15;12:30;834
05.01.2018;12:30;12:45;839
05.01.2018;12:45;13:00;811
05.01.2018;13:00;13:15;783
05.01.2018;13:15;13:30;758
05.01.2018;13:30;13:45;673
05.01.2018;13:45;14:00;733
05.01.2018;14:00;14:15;681
05.01.2018;14:15;14:30;662
05.01.2018;14:30;14:45;673
05.01.2018;14:45;15:00;674
05.01.2018;15:00;15:15;675
05.01.2018;15:15;15:30;681
05.01.2018;15:30;15:45;683
05.01.2018;15:45;16:00;701
05.01.2018;16:00;16:15;666
05.01.2018;16:15;16:30;650
05.01.2018;16:30;16:45;668
05.01.2018;16:45;17:00;696
05.01.2018;17:00;17:15;736
05.01.2018;17:15;17:30;737
05.01.2018;17:30;17:45;779
05.01.2018;17:45;18:00;799
05.01.2018;18:00;18:15;815
05.01.2018;18:15;18:30;823
05.01.2018;18:30;18:45;855
05.01.2018;18:45;19:00;831
05.01.2018;19:00;19:15;799
05.01.2018;19:15;19:30;753
05.01.2018;19:30;19:45;743
05.01.2018;19:45;20:00;737
05.01.2018;20:00;20:15;717
05.01.2018;20:15;20:30;696
05.01.2018;20:30;20:45;675
05.01.2018;20:45;21:00;649
05.01.2018;21:00;21:15;606
05.01.2018;21:15;21:30;624
05.01.2018;21:30;21:45;601
05.01.2018;21:45;22:00;577
05.01.2018;22:00;22:15;584
05.01.2018;22:15;22:30;594
05.01.2018;22:30;22:45;577
05.01.2018;22:45;23:00;545
05.01.2018;23:00;23:15;515
05.01.2018;23:15;23:30;500
05.01.2018;23:30;23:45;460
06.01.2018;23:45;00:00;452
06.01.2018;00:00;00:15;435
06.01.2018;00:15;00:30;427
06.01.2018;00:30;00:45;409
06.01.2018;00:45;01:00;392
06.01.2018;01:00;01:15;377
06.01.2018;01:15;01:30;380
06.01.2018;01:30;01:45;383
06.01.2018;01:45;02:00;384
06.01.2018;02:00;02:15;378
06.01.2018;02:15;02:30;368
06.01.2018;02:30;02:45;372
06.01.2018;02:45;03:00;387
06.01.2018;03:00;03:15;393
06.01.2018;03:15;03:30;394
06.01.2018;03:30;03:45;408
06.01.2018;03:45;04:00;398
06.01.2018;04:00;04:15;398
06.01.2018;04:15;04:30;394
06.01.2018;04:30;04:45;427
06.01.2018;04:45;05:00;409
06.01.2018;05:00;05:15;408
06.01.2018;05:15;05:30;398
06.01.2018;05:30;05:45;394
06.01.2018;05:45;06:00;385
06.01.2018;06:00;06:15;375
06.01.2018;06:15;06:30;401
06.01.2018;06:30;06:45;394
06.01.2018;06:45;07:00;433
06.01.2018;07:00;07:15;438
06.01.2018;07:15;07:30;455
06.01.2018;07:30;07:45;470
06.01.2018;07:45;08:00;479
06.01.2018;08:00;08:15;528
06.01.2018;08:15;08:30;561
06.01.2018;08:30;08:45;549
06.01.2018;08:45;09:00;581
06.01.2018;09:00;09:15;594
06.01.2018;09:15;09:30;613
06.01.2018;09:30;09:45;637
06.01.2018;09:45;10:00;655
06.01.2018;10:00;10:15;633
06.01.2018;10:15;10:30;620
06.01.2018;10:30;10:45;608
06.01.2018;10:45;11:00;647
06.01.2018;11:00;11:15;671
06.01.2018;11:15;11:30;723
06.01.2018;11:30;11:45;750
06.01.2018;11:45;12:00;713
06.01.2018;12:00;12:15;738
06.01.2018;12:15;12:30;726
06.01.2018;12:30;12:45;713
06.01.2018;12:45;13:00;736
06.01.2018;13:00;13:15;751
06.01.2018;13:15;13:30;776
06.01.2018;13:30;13:45;739
06.01.2018;13:45;14:00;755
06.01.2018;14:00;14:15;777
06.01.2018;14:15;14:30;763
06.01.2018;14:30;14:45;741
06.01.2018;14:45;15:00;732
06.01.2018;15:00;15:15;737
06.01.2018;15:15;15:30;720
06.01.2018;15:30;15:45;684
06.01.2018;15:45;16:00;673
06.01.2018;16:00;16:15;720
06.01.2018;16:15;16:30;717
06.01.2018;16:30;16:45;699
06.01.2018;16:45;17:00;748
06.01.2018;17:00;17:15;739
06.01.2018;17:15;17:30;766
06.01.2018;17:30;17:45;761
06.01.2018;17:45;18:00;800
06.01.2018;18:00;18:15;778
06.01.2018;18:15;18:30;777
06.01.2018;18:30;18:45;784
06.01.2018;18:45;19:00;770
06.01.2018;19:00;19:15;765
06.01.2018;19:15;19:30;758
06.01.2018;19:30;19:45;719
06.01.2018;19:45;20:00;711
06.01.2018;20:00;20:15;709
06.01.2018;20:15;20:30;675
06.01.2018;20:30;20:45;659
06.01.2018;20:45;21:00;629
06.01.2018;21:00;21:15;612
06.01.2018;21:15;21:30;610
06.01.2018;21:30;21:45;582
06.01.2018;21:45;22:00;568
06.01.2018;22:00;22:15;568
06.01.2018;22:15;22:30;571
06.01.2018;22:30;22:45;569
06.01.2018;22:45;23:00;546
06.01.2018;23:00;23:15;542
06.01.2018;23:15;23:30;529
06.01.2018;23:30;23:45;511
07.01.2018;23:45;00:00;485
07.01.2018;00:00;00:15;448
07.01.2018;00:15;00:30;430
07.01.2018;00:30;00:45;409
07.01.2018;00:45;01:00;398
07.01.2018;01:00;01:15;402
07.01.2018;01:15;01:30;386
07.01.2018;01:30;01:45;363
07.01.2018;01:45;02:00;400
07.01.2018;02:00;02:15;396
07.01.2018;02:15;02:30;384
07.01.2018;02:30;02:45;395
07.01.2018;02:45;03:00;392
07.01.2018;03:00;03:15;395
07.01.2018;03:15;03:30;386
07.01.2018;03:30;03:45;385
07.01.2018;03:45;04:00;397
07.01.2018;04:00;04:15;412
07.01.2018;04:15;04:30;396
07.01.2018;04:30;04:45;390
07.01.2018;04:45;05:00;394
07.01.2018;05:00;05:15;403
07.01.2018;05:15;05:30;396
07.01.2018;05:30;05:45;389
07.01.2018;05:45;06:00;374
07.01.2018;06:00;06:15;372
07.01.2018;06:15;06:30;358
07.01.2018;06:30;06:45;372
07.01.2018;06:45;07:00;380
07.01.2018;07:00;07:15;396
07.01.2018;07:15;07:30;402
07.01.2018;07:30;07:45;437
07.01.2018;07:45;08:00;434
07.01.2018;08:00;08:15;479
07.01.2018;08:15;08:30;539
07.01.2018;08:30;08:45;539
07.01.2018;08:45;09:00;570
07.01.2018;09:00;09:15;603
07.01.2018;09:15;09:30;623
07.01.2018;09:30;09:45;647
07.01.2018;09:45;10:00;664
07.01.2018;10:00;10:15;642
07.01.2018;10:15;10:30;568
07.01.2018;10:30;10:45;541
07.01.2018;10:45;11:00;560
07.01.2018;11:00;11:15;599
07.01.2018;11:15;11:30;595
07.01.2018;11:30;11:45;576
07.01.2018;11:45;12:00;666
07.01.2018;12:00;12:15;700
07.01.2018;12:15;12:30;551
07.01.2018;12:30;12:45;262
07.01.2018;12:45;13:00;210
07.01.2018;13:00;13:15;370
07.01.2018;13:15;13:30;408
07.01.2018;13:30;13:45;449
07.01.2018;13:45;14:00;371
07.01.2018;14:00;14:15;400
07.01.2018;14:15;14:30;411
07.01.2018;14:30;14:45;431
07.01.2018;14:45;15:00;426
07.01.2018;15:00;15:15;482
07.01.2018;15:15;15:30;524
07.01.2018;15:30;15:45;579
07.01.2018;15:45;16:00;601
07.01.2018;16:00;16:15;638
07.01.2018;16:15;16:30;632
07.01.2018;16:30;16:45;636
07.01.2018;16:45;17:00;673
07.01.2018;17:00;17:15;718
07.01.2018;17:15;17:30;758
07.01.2018;17:30;17:45;776
07.01.2018;17:45;18:00;774
07.01.2018;18:00;18:15;842
07.01.2018;18:15;18:30;837
07.01.2018;18:30;18:45;818
07.01.2018;18:45;19:00;809
07.01.2018;19:00;19:15;810
07.01.2018;19:15;19:30;755
07.01.2018;19:30;19:45;715
07.01.2018;19:45;20:00;761
07.01.2018;20:00;20:15;714
07.01.2018;20:15;20:30;692
07.01.2018;20:30;20:45;681
07.01.2018;20:45;21:00;658
07.01.2018;21:00;21:15;635
07.01.2018;21:15;21:30;639
07.01.2018;21:30;21:45;604
07.01.2018;21:45;22:00;566
07.01.2018;22:00;22:15;552
07.01.2018;22:15;22:30;555
07.01.2018;22:30;22:45;528
07.01.2018;22:45;23:00;501
07.01.2018;23:00;23:15;483
07.01.2018;23:15;23:30;473
07.01.2018;23:30;23:45;450
08.01.2018;23:45;00:00;444
08.01.2018;00:00;00:15;424
08.01.2018;00:15;00:30;418
08.01.2018;00:30;00:45;409
08.01.2018;00:45;01:00;406
08.01.2018;01:00;01:15;410
08.01.2018;01:15;01:30;401
08.01.2018;01:30;01:45;395
08.01.2018;01:45;02:00;403
08.01.2018;02:00;02:15;392
08.01.2018;02:15;02:30;406
08.01.2018;02:30;02:45;396
08.01.2018;02:45;03:00;410
08.01.2018;03:00;03:15;400
08.01.2018;03:15;03:30;401
08.01.2018;03:30;03:45;404
08.01.2018;03:45;04:00;397
08.01.2018;04:00;04:15;422
08.01.2018;04:15;04:30;406
08.01.2018;04:30;04:45;417
08.01.2018;04:45;05:00;437
08.01.2018;05:00;05:15;424
08.01.2018;05:15;05:30;455
08.01.2018;05:30;05:45;461
08.01.2018;05:45;06:00;457
08.01.2018;06:00;06:15;493
08.01.2018;06:15;06:30;517
08.01.2018;06:30;06:45;529
08.01.2018;06:45;07:00;552
08.01.2018;07:00;07:15;552
08.01.2018;07:15;07:30;554
08.01.2018;07:30;07:45;586
08.01.2018;07:45;08:00;602
08.01.2018;08:00;08:15;599
08.01.2018;08:15;08:30;604
08.01.2018;08:30;08:45;596
08.01.2018;08:45;09:00;618
08.01.2018;09:00;09:15;597
08.01.2018;09:15;09:30;583
08.01.2018;09:30;09:45;568
08.01.2018;09:45;10:00;550
08.01.2018;10:00;10:15;538
08.01.2018;10:15;10:30;432
08.01.2018;10:30;10:45;389
08.01.2018;10:45;11:00;413
08.01.2018;11:00;11:15;458
08.01.2018;11:15;11:30;393
08.01.2018;11:30;11:45;342
08.01.2018;11:45;12:00;350
08.01.2018;12:00;12:15;357
08.01.2018;12:15;12:30;287
08.01.2018;12:30;12:45;345
08.01.2018;12:45;13:00;294
08.01.2018;13:00;13:15;286
08.01.2018;13:15;13:30;320
08.01.2018;13:30;13:45;382
08.01.2018;13:45;14:00;407
08.01.2018;14:00;14:15;423
08.01.2018;14:15;14:30;424
08.01.2018;14:30;14:45;479
08.01.2018;14:45;15:00;440
08.01.2018;15:00;15:15;482
08.01.2018;15:15;15:30;581
08.01.2018;15:30;15:45;624
08.01.2018;15:45;16:00;620
08.01.2018;16:00;16:15;654
08.01.2018;16:15;16:30;675
08.01.2018;16:30;16:45;665
08.01.2018;16:45;17:00;714
08.01.2018;17:00;17:15;750
08.01.2018;17:15;17:30;756
08.01.2018;17:30;17:45;796
08.01.2018;17:45;18:00;862
08.01.2018;18:00;18:15;872
08.01.2018;18:15;18:30;833
08.01.2018;18:30;18:45;859
08.01.2018;18:45;19:00;819
08.01.2018;19:00;19:15;848
08.01.2018;19:15;19:30;849
08.01.2018;19:30;19:45;751
08.01.2018;19:45;20:00;764
08.01.2018;20:00;20:15;753
08.01.2018;20:15;20:30;682
08.01.2018;20:30;20:45;654
08.01.2018;20:45;21:00;640
08.01.2018;21:00;21:15;616
08.01.2018;21:15;21:30;615
08.01.2018;21:30;21:45;597
08.01.2018;21:45;22:00;565
08.01.2018;22:00;22:15;567
08.01.2018;22:15;22:30;570
08.01.2018;22:30;22:45;553
08.01.2018;22:45;23:00;526
08.01.2018;23:00;23:15;491
08.01.2018;23:15;23:30;472
08.01.2018;23:30;23:45;438
09.01.2018;23:45;00:00;410
09.01.2018;00:00;00:15;389
09.01.2018;00:15;00:30;382
09.01.2018;00:30;00:45;378
09.01.2018;00:45;01:00;381
09.01.2018;01:00;01:15;368
09.01.2018;01:15;01:30;375
09.01.2018;01:30;01:45;366
09.01.2018;01:45;02:00;370
09.01.2018;02:00;02:15;378
09.01.2018;02:15;02:30;367
09.01.2018;02:30;02:45;371
09.01.2018;02:45;03:00;381
09.01.2018;03:00;03:15;378
09.01.2018;03:15;03:30;391
09.01.2018;03:30;03:45;383
09.01.2018;03:45;04:00;386
09.01.2018;04:00;04:15;413
09.01.2018;04:15;04:30;404
09.01.2018;04:30;04:45;419
09.01.2018;04:45;05:00;422
09.01.2018;05:00;05:15;415
09.01.2018;05:15;05:30;434
09.01.2018;05:30;05:45;429
09.01.2018;05:45;06:00;458
09.01.2018;06:00;06:15;471
09.01.2018;06:15;06:30;493
09.01.2018;06:30;06:45;505
09.01.2018;06:45;07:00;529
09.01.2018;07:00;07:15;538
09.01.2018;07:15;07:30;581
09.01.2018;07:30;07:45;599
09.01.2018;07:45;08:00;595
09.01.2018;08:00;08:15;598
09.01.2018;08:15;08:30;606
09.01.2018;08:30;08:45;600
09.01.2018;08:45;09:00;604
09.01.2018;09:00;09:15;597
09.01.2018;09:15;09:30;622
09.01.2018;09:30;09:45;649
09.01.2018;09:45;10:00;612
09.01.2018;10:00;10:15;620
09.01.2018;10:15;10:30;574
09.01.2018;10:30;10:45;580
09.01.2018;10:45;11:00;588
09.01.2018;11:00;11:15;599
09.01.2018;11:15;11:30;634
09.01.2018;11:30;11:45;668
09.01.2018;11:45;12:00;675
09.01.2018;12:00;12:15;669
09.01.2018;12:15;12:30;668
09.01.2018;12:30;12:45;667
09.01.2018;12:45;13:00;668
09.01.2018;13:00;13:15;714
09.01.2018;13:15;13:30;689
09.01.2018;13:30;13:45;694
09.01.2018;13:45;14:00;698
09.01.2018;14:00;14:15;678
09.01.2018;14:15;14:30;635
09.01.2018;14:30;14:45;629
09.01.2018;14:45;15:00;623
09.01.2018;15:00;15:15;646
09.01.2018;15:15;15:30;646
09.01.2018;15:30;15:45;646
09.01.2018;15:45;16:00;651
09.01.2018;16:00;16:15;637
09.01.2018;16:15;16:30;667
09.01.2018;16:30;16:45;671
09.01.2018;16:45;17:00;692
09.01.2018;17:00;17:15;723
09.01.2018;17:15;17:30;790
09.01.2018;17:30;17:45;803
09.01.2018;17:45;18:00;807
09.01.2018;18:00;18:15;821